Regional Weather Roundup
Issued by NWS Cleveland, OH

Home | Current Version | Previous Version | Text Only | Print | Product List | Glossary Off
Versions: 1 2 3 4 5 6 7 8 9 10 11 12 13 14 15 16 17 18 19 20 21 22 23 24 25 26 27 28 29 30 31 32 33 34 35 36 37 38 39 40 41 42 43 44 45 46 47 48 49 50

000
ASUS41 KCLE 231300
RWRCLE
OHIO REGIONAL WEATHER ROUNDUP
NATIONAL WEATHER SERVICE WILMINGTON, OH
900 AM EDT MON APR 23 2018

NOTE: "FAIR" INDICATES FEW OR NO CLOUDS BELOW 12,000 FEET WITH NO
SIGNIFICANT WEATHER AND/OR OBSTRUCTIONS TO VISIBILITY.

OHZ001>008-015>018-024>027-034-035-043-044-231400-
   NORTHWEST OHIO

CITY           SKY/WX    TMP DP  RH WIND       PRES   REMARKS
DEFIANCE       NOT AVBL
FINDLAY        FAIR      50  34  54 E8        30.20R
TOLEDO EXPRESS FAIR      50  38  63 E7        30.23S
TOLEDO EXEC    FAIR      51  38  60 NE7       30.24S
LIMA           FAIR      52  37  56 E13       30.18S
$$

OHZ009>014-019>023-028>033-038-089-231400-
   NORTHEAST OHIO

CITY           SKY/WX    TMP DP  RH WIND       PRES   REMARKS
CLE-HOPKINS    PTSUNNY   58  39  49 SE15      30.28S
CLE-LAKEFRONT  FAIR      57  36  45 SE14G21   30.26S
CUY CO. ARPT   PTSUNNY   57  37  47 SE12G22   30.28S
LORAIN-ELYRIA  FAIR      54  35  48 SE8       30.25F
ASHTABULA      FAIR      54  32  43 SE10      30.31F
AKRON-CANTON   FAIR      56  39  53 SE12      30.28S
WOOSTER        NOT AVBL
MANSFIELD      FAIR      54  40  59 SE16      30.24R
YOUNGSTOWN     PTSUNNY   54  36  50 SE12      30.30S
$$

OHZ042-051>053-060>062-070>072-077>081-231400-
  SOUTHWEST OHIO

CITY           SKY/WX    TMP DP  RH WIND       PRES   REMARKS
CINC-COVINGTON CLOUDY    56  39  53 E7        30.11R
CINC-LUNKEN    CLOUDY    55  45  68 NE5       30.13R
HAMILTON       FAIR      58  41  53 E6        30.14R
DAYTON         NOT AVBL
WRIGHT-PAT AFB FAIR      60  41  50 E14G20    30.15S
DAYTON GENERAL FAIR      58  39  49 E10       30.13R
WILMINGTON     FAIR      56  42  59 E10       30.15R
$$

OHZ036-037-039>041-045>050-054>059-063>069-073>076-082>088-231400-
  CENTRAL AND SOUTHEAST OHIO

CITY           SKY/WX    TMP DP  RH WIND       PRES   REMARKS
COLUMBUS       PTSUNNY   60  39  45 E14       30.20R
OSU AIRPORT    FAIR      59  40  49 SE13      30.20R
BOLTON FIELD   SUNNY     57  39  51 E13       30.19S
RICKENBACK AFB NOT AVBL
NEWARK         FAIR      60  42  51 SE8       30.21S
MARION         FAIR      57  40  52 SE17      30.21S
LANCASTER      FAIR      58  42  55 E10       30.21R
ZANESVILLE     FAIR      57  42  57 E8        30.23
NEW PHILLY     FAIR      57  42  57 E10       30.27R
$$




USA.gov is the U.S. government's official web portal to all federal, state and local government web resources and services.